Regional Weather Roundup
Issued by NWS

Home | Current Version | Previous Version | Graphics & Text | Print | Product List | Glossary On
Versions: 1 2 3 4 5 6 7 8 9 10 11 12 13 14 15 16 17 18 19 20 21 22 23 24 25 26 27 28 29 30 31 32 33 34 35 36 37 38 39 40 41 42 43 44 45 46 47 48 49 50
000
ASUS45 KCYS 290810
RWRWY

WYOMING REGIONAL WEATHER ROUNDUP
NATIONAL WEATHER SERVICE CHEYENNE WY
200 AM MDT SUN MAY 29 2016

NOTE:  "FAIR" INDICATES FEW OR NO CLOUDS BELOW 12,000 FEET
WITH NO SIGNIFICANT WEATHER AND/OR OBSTRUCTIONS TO VISIBILITY.

WYZ001-290900-
YELLOWSTONE NATIONAL PARK

CITY           SKY/WX    TMP DP  RH WIND       PRES   REMARKS
LK YELLOWSTONE   N/A     28  25  88 NW3       30.24S
W YELLOWSTONE  NOT AVBL

$$
WYZ002>013-054>058-071-098>099-290900-
NORTHERN WYOMING

CITY           SKY/WX    TMP DP  RH WIND       PRES   REMARKS
JACKSON        FAIR      32  28  86 NE3       30.19S
CODY           FAIR      48  39  71 SW6       30.09F
GREYBULL       FAIR      55  42  61 NW3       30.05S
WORLAND        FAIR      51  43  74 W5        30.06S
SHERIDAN       FAIR      46  42  86 CALM      30.07S
BUFFALO        MOCLDY    53  43  68 S10       30.10F
GILLETTE       LGT RAIN  54  44  69 SW14G30   30.07S
HULETT         FAIR      45  39  81 SW5       30.10S
NEWCASTLE      FAIR      45  43  93 NE3       30.10F

$$
WYZ014>020-022>026-101>103-290900-
CENTRAL WYOMING

CITY           SKY/WX    TMP DP  RH WIND       PRES   REMARKS
BIG PINEY      FAIR      34  28  79 N6        30.20S WCI  29
PINEDALE       FAIR      32  28  86 NW5       30.21S WCI  27
DUBOIS         FAIR      36  21  55 NW10      30.19S WCI  28
LANDER         FAIR      50  26  39 W13       30.09S
RIVERTON       FAIR      48  37  65 N6        30.09F
CASPER         FAIR      41  38  89 NW7       30.08F
DOUGLAS          N/A    N/A N/A N/A MISG      30.09F

$$
WYZ021-027>030-104>119-290900-
SOUTHERN WYOMING

CITY           SKY/WX    TMP DP  RH WIND       PRES   REMARKS
EVANSTON       FAIR      47  29  49 SE6       30.20S
KEMMERER         N/A     37  32  81 NW5       30.21S WCI  34
FORT BRIDGER   SUNNY     46  32  57 W7        30.23F
ROCK SPRINGS   FAIR      45  36  70 S8        30.18F
DIXON          FAIR      46  37  72 E6        30.22S
RAWLINS        FAIR      48  34  58 SW10      30.18S
SARATOGA       FAIR      39  34  81 SE6       30.21S WCI  35
LARAMIE        FAIR      41  35  79 S7        30.20R
CHEYENNE       FAIR      47  37  68 W6        30.16S
TORRINGTON     FAIR      49  45  86 NW3       30.08R
PINE BLUFFS    FAIR      41  41 100 CALM      30.14S

$$



USA.gov is the U.S. government's official web portal to all federal, state and local government web resources and services.